Tracking 23757 objects as of 26-Oct-2021
HD Live streaming from Space Station
objects crossing your sky now

SL-14 DEB

Track SL-14 DEB now!
10-day predictions


NORAD ID: 45311
Int'l Code: 1991-056AZ
Perigee: 1,184.2 km
Apogee: 1,213.0 km
Inclination: 82.5 °
Period: 109.2 minutes
Semi major axis: 7569 km
RCS: Unknown
Launch date: August 15, 1991
Source: Commonwealth of Independent States (former USSR) (CIS)
Launch site: PLESETSK MISSILE AND SPACE COMPLEX (PKMTR)

Note: This is SATELLITE DEBRIS
aabbcc
Your satellite tracking list
Your tracking list is empty




NASA's NSSDC Master Catalog

Two Line Element Set (TLE):
1 45311U 91056AZ  21297.96087572  .00000180  00000-0  42610-3 0  9995
2 45311  82.5484 256.2861 0019036  41.9882 318.2696 13.18234096 80075
Source of the keplerian elements: AFSPC